RH
60 61 62 68 70 70 72 76 75 71 74 67 61 59 58 59 60 61 61 64 63 63 65 66 68 68 69 70 71 73 74 75 76 79 79 78 78 78 76 75 74 73 73 71 71 71 71 70 69 69 68 67 64 62 59 56 56 56 55 52 49 49 48 48 48 47 45 43 41 39 39 39 38 37 38 40 42 43 42 41 42 43 44 44 44 45 46 48 49 49 50 51 51 52 56 59 63
56 59 64 68 68 73 73 74 75 75 73 64 60 59 56 60 63 63 63 64 63 63 65 66 67 68 70 70 72 73 74 76 76 77 76 76 78 77 73 72 73 69 66 68 70 70 70 67 66 65 62 61 58 58 57 54 55 55 54 51 50 50 48 48 47 45 44 43 41 39 38 38 38 39 40 42 44 43 43 42 43 45 45 45 45 45 45 46 47 48 49 49 50 52 55 57 58
57 59 64 66 68 74 69 69 75 70 68 64 63 62 62 65 65 64 63 63 62 63 64 66 66 67 71 71 74 74 73 75 73 71 71 74 75 75 73 71 73 69 63 64 65 64 65 63 61 59 56 55 54 55 55 53 53 54 53 50 48 48 48 47 45 44 43 42 40 39 38 39 40 41 43 44 44 44 44 44 45 46 46 45 45 45 44 44 45 46 47 47 48 50 54 55 55
60 62 63 64 66 71 65 63 64 56 59 66 66 63 65 64 60 60 61 62 62 63 64 66 67 70 75 72 71 71 70 71 69 67 70 73 72 70 70 71 71 67 64 62 60 57 57 58 57 57 55 53 53 53 53 51 51 51 50 48 47 47 46 44 43 43 42 41 41 40 40 40 42 44 46 45 44 45 46 46 46 46 46 45 45 44 44 44 43 43 44 45 46 49 52 53 54
57 60 60 65 66 65 60 53 51 52 53 60 65 63 62 58 55 56 57 59 60 60 61 63 65 69 74 72 71 70 67 68 67 67 67 69 69 66 66 69 70 65 64 61 57 55 52 52 54 55 54 52 52 52 51 49 48 47 47 46 45 45 43 42 42 42 42 42 42 42 42 42 45 46 47 47 47 48 47 47 47 47 47 46 45 44 44 43 42 42 42 43 45 49 50 52 52
51 53 54 60 61 58 56 44 38 45 47 51 61 62 59 54 53 53 53 55 56 56 58 61 62 65 69 69 71 70 66 67 67 65 63 64 64 64 63 66 69 66 65 61 56 54 50 49 51 52 51 50 50 50 49 48 47 45 44 43 43 42 41 41 42 43 43 43 43 44 44 45 46 48 48 48 49 49 48 48 49 48 48 47 46 45 45 44 44 44 44 44 45 47 49 50 51
51 54 58 58 55 55 53 42 31 35 40 46 53 57 56 52 52 51 50 51 51 53 55 58 60 63 66 68 69 67 67 65 64 63 63 63 61 62 60 60 65 65 63 59 54 49 46 47 50 51 50 48 49 49 49 48 46 43 42 42 41 41 41 42 43 44 44 44 45 46 46 46 47 48 48 49 49 49 48 49 50 50 49 49 48 48 48 49 49 48 47 47 46 46 48 48 51
50 56 62 58 56 51 41 33 29 30 34 39 44 49 48 47 50 48 47 48 49 50 53 57 61 64 67 68 67 65 65 64 65 64 64 63 61 61 58 56 58 61 61 56 51 46 43 45 49 51 50 48 48 48 49 47 45 42 41 41 41 41 42 43 45 45 45 46 47 47 46 47 48 48 48 49 49 48 48 49 50 49 49 49 50 51 51 52 51 51 51 50 49 47 48 48 49
51 56 57 55 52 43 32 28 30 31 31 31 33 37 37 41 48 49 47 47 48 49 52 57 61 65 66 65 64 64 65 66 67 64 62 62 60 58 56 55 54 57 61 55 49 44 41 44 46 48 49 48 48 48 48 46 44 44 43 42 41 41 42 43 45 46 47 48 48 47 46 47 49 49 49 50 49 48 48 48 48 49 48 49 52 53 54 55 53 52 53 53 52 50 50 49 49
56 55 53 51 44 39 35 30 29 31 31 28 26 28 30 36 44 48 49 46 47 49 52 57 62 65 62 61 63 63 65 67 66 62 61 59 57 57 55 53 52 55 59 54 48 43 41 42 43 46 47 47 47 46 45 45 44 44 44 43 42 42 43 44 44 46 48 48 48 48 47 49 49 49 50 49 48 47 48 49 51 52 51 53 57 60 59 59 59 56 56 56 55 54 53 51 50
62 58 52 49 42 40 38 29 25 28 29 27 25 26 28 33 37 42 45 44 45 48 51 55 61 65 61 61 63 61 64 66 63 59 58 57 55 54 53 52 52 54 56 54 49 46 44 42 41 43 45 45 45 45 43 43 42 43 43 42 43 43 44 45 46 47 48 49 49 49 49 50 50 50 49 48 49 49 49 49 53 54 54 57 62 64 63 64 64 63 62 60 59 58 57 55 53
67 63 55 47 42 41 38 32 27 26 29 28 25 27 29 32 37 40 41 42 43 44 51 58 59 62 60 59 60 59 62 61 58 56 55 55 54 52 51 52 54 53 54 53 50 47 46 42 41 43 43 44 44 44 42 40 41 42 43 43 44 45 46 47 47 48 49 50 51 52 52 53 52 50 50 50 52 52 51 50 52 56 58 60 62 63 64 66 66 66 66 64 62 61 61 60 60
67 64 54 46 42 41 39 33 28 28 30 27 23 26 29 33 39 41 41 41 42 42 52 59 56 60 62 57 56 57 58 56 54 53 53 55 54 52 51 53 55 54 54 52 50 48 46 43 43 44 43 43 43 42 41 41 42 43 43 44 46 47 47 47 48 50 51 53 54 54 54 53 51 49 50 51 53 53 51 50 51 56 59 60 60 60 63 64 64 64 64 64 64 63 64 64 64
66 61 48 44 44 42 40 34 33 34 29 24 21 22 27 32 35 38 42 43 43 45 50 55 55 58 60 57 53 54 55 53 52 51 52 54 53 53 52 53 55 54 54 50 49 48 47 46 45 44 42 41 41 42 42 43 43 43 44 45 48 48 47 47 49 51 53 54 54 54 53 51 50 50 50 50 52 52 50 49 52 55 57 58 57 58 58 59 60 59 60 60 61 62 63 63 63
61 56 44 42 44 41 41 37 36 35 27 24 21 20 23 26 29 34 41 44 47 49 48 53 54 53 52 50 49 51 52 51 51 51 53 53 52 54 53 54 56 55 54 50 48 46 47 49 47 45 42 41 41 42 43 43 42 43 44 45 47 47 46 48 50 52 53 53 53 53 52 51 51 52 51 49 48 49 50 50 50 50 52 54 54 54 53 53 53 53 52 52 53 55 55 55 55
55 54 49 42 41 42 42 39 36 34 27 24 21 20 22 22 27 32 37 43 49 50 47 52 55 51 50 49 47 48 48 48 50 52 53 52 52 53 54 55 55 57 55 52 51 47 46 48 46 45 44 43 42 43 43 42 42 42 44 45 46 46 46 47 48 50 50 52 52 52 52 52 54 53 51 49 47 47 48 48 45 45 47 50 51 51 49 48 47 46 46 47 48 49 50 51 51
52 54 53 43 42 44 43 40 40 37 28 24 21 22 23 22 28 32 34 40 45 46 45 50 50 50 53 50 47 46 46 47 50 52 52 51 51 51 53 53 51 52 51 50 49 46 47 46 43 43 45 45 44 44 43 43 42 41 42 43 44 45 44 44 44 45 47 49 50 50 50 52 55 53 50 48 48 48 45 44 43 43 45 47 49 48 46 43 42 41 42 43 45 47 48 49 50
54 59 56 47 46 45 44 42 42 40 33 26 23 24 23 24 30 29 31 35 36 40 46 48 45 51 56 48 44 46 44 46 49 51 50 50 50 49 51 50 48 47 46 46 45 46 48 45 42 45 45 45 45 44 44 43 40 40 42 41 42 42 42 41 42 43 45 47 47 47 49 53 56 52 50 48 47 47 45 43 44 44 45 46 46 46 44 42 41 41 40 40 42 42 42 43 47
53 61 57 49 48 44 43 43 41 40 38 33 27 25 24 24 27 26 30 32 31 38 45 44 44 55 57 43 41 45 43 43 45 46 46 47 48 48 48 47 46 46 45 45 45 46 47 44 44 47 46 45 45 44 44 44 39 39 41 40 40 41 41 41 41 43 45 46 45 46 50 56 57 51 50 49 46 45 45 45 46 45 44 44 45 44 43 41 40 39 38 38 40 41 43 44 46
53 61 58 50 47 43 40 42 42 40 40 38 32 28 26 24 23 25 32 30 28 36 39 40 46 56 51 37 40 45 43 42 42 43 42 44 44 44 45 45 46 45 44 44 45 46 46 45 46 48 46 44 45 44 45 45 40 40 42 42 41 41 42 41 42 44 45 46 46 46 50 53 52 51 48 44 44 45 48 49 48 47 45 44 44 42 42 41 41 40 38 40 43 44 45 45 44
52 63 63 50 45 44 40 41 43 40 39 39 35 33 30 24 21 26 33 30 27 33 35 37 46 53 46 35 38 44 43 40 40 41 40 42 43 42 44 44 45 43 43 44 45 46 45 46 48 47 44 41 44 45 46 47 42 42 45 45 45 45 45 43 43 45 45 47 46 46 50 51 49 52 50 46 46 46 50 51 50 49 47 44 42 45 45 42 44 44 41 42 44 44 42 42 41
50 59 59 48 44 45 40 39 41 38 37 38 35 37 33 24 22 24 31 33 31 32 32 35 43 47 42 34 36 41 42 39 39 40 39 42 44 44 45 42 42 43 43 44 44 45 45 46 47 46 42 40 43 45 48 48 45 47 48 48 48 49 49 47 47 48 48 46 44 47 52 51 48 51 51 50 49 48 49 49 53 53 49 47 46 52 49 42 43 43 42 41 41 42 40 40 40
45 49 51 47 44 44 40 37 37 35 36 38 35 37 33 26 26 23 29 36 34 34 30 33 42 42 37 34 35 38 39 38 38 39 39 42 44 45 44 39 41 43 45 45 44 45 45 45 46 45 42 40 43 45 50 49 46 50 52 50 49 50 51 51 51 51 52 47 42 47 50 49 48 48 49 51 49 49 48 47 53 54 53 55 51 52 48 42 43 43 43 42 41 41 40 40 40
40 44 45 45 43 43 41 35 33 33 36 38 34 35 31 30 32 23 28 34 32 36 30 33 42 38 34 33 33 35 36 37 37 38 39 41 43 44 42 39 40 43 45 46 45 45 45 45 45 45 43 40 42 46 50 49 48 51 53 51 49 50 51 50 51 51 53 51 45 45 47 47 47 47 47 48 47 47 47 46 49 48 50 52 47 49 48 43 45 45 43 42 41 40 39 39 41
35 40 41 43 44 42 40 34 31 31 36 37 33 33 30 32 32 24 29 29 26 33 30 34 42 38 34 30 30 34 35 37 37 36 37 40 42 41 40 39 40 42 45 46 46 45 44 46 45 45 44 41 43 46 49 50 50 51 52 50 47 49 49 48 50 50 52 53 50 45 44 47 48 46 46 47 48 49 49 47 47 44 45 46 44 47 47 45 47 45 43 42 40 39 38 38 39
32 37 40 41 42 41 39 34 29 31 36 37 34 34 32 31 31 27 30 26 22 29 30 36 42 40 36 28 28 32 35 36 36 35 35 38 39 38 38 38 38 40 44 45 45 44 43 45 45 45 44 42 43 46 48 51 51 51 51 49 47 47 46 47 49 49 51 52 52 47 43 45 47 47 47 48 50 50 50 49 48 45 45 46 45 46 46 47 46 43 43 42 41 40 40 38 36
35 36 38 40 40 39 39 35 30 31 33 35 36 35 34 32 30 31 30 24 23 29 31 36 39 42 40 30 27 30 33 34 35 34 33 34 34 36 38 38 37 38 41 42 42 43 43 44 45 43 42 40 41 45 47 48 48 48 47 46 47 47 45 47 47 47 49 49 50 49 44 42 44 48 48 50 52 51 49 49 48 47 47 46 46 47 45 44 43 43 43 41 42 41 40 37 35
36 37 38 39 38 37 36 34 30 29 32 34 37 35 35 33 28 32 31 23 24 29 31 34 36 38 38 32 27 28 31 32 33 32 31 32 32 33 35 35 37 38 39 38 38 40 41 42 42 41 40 37 38 43 45 46 46 45 43 43 45 47 46 46 48 48 49 49 49 48 43 38 41 44 46 47 48 49 49 48 47 47 49 48 48 49 46 44 43 43 43 42 42 39 38 36 34
30 33 36 37 37 34 31 31 28 28 31 34 36 36 38 36 29 31 29 22 25 29 30 34 34 33 33 31 27 26 29 29 31 31 29 31 31 31 32 33 35 37 37 37 37 38 39 39 39 39 40 36 34 39 43 43 44 43 42 43 43 45 45 45 49 50 50 50 48 46 40 37 39 41 43 44 44 47 48 48 47 47 50 48 48 49 47 51 49 46 47 45 43 40 37 34 31
26 27 30 35 36 31 24 25 26 25 28 32 34 39 41 38 33 32 28 22 24 28 30 33 34 33 30 30 27 24 27 27 28 29 28 29 30 30 31 31 33 35 36 38 38 38 38 38 37 38 39 36 32 36 41 40 41 41 41 42 42 42 44 47 49 49 50 50 49 47 42 39 41 42 44 45 44 46 48 49 50 50 51 48 48 50 50 55 56 52 52 46 41 41 37 32 29
25 25 26 29 34 34 25 22 24 25 28 31 34 43 46 38 33 33 27 21 23 27 31 32 35 35 31 28 26 23 24 25 26 27 27 28 29 30 30 32 33 34 36 37 37 36 37 37 37 37 39 38 32 31 37 38 38 40 41 41 41 40 42 46 47 48 49 50 51 51 49 45 43 44 46 47 45 46 47 51 54 53 55 55 54 55 54 53 57 57 51 43 40 40 38 34 28
25 26 26 26 29 37 32 22 23 28 31 31 32 43 46 37 33 31 26 22 22 24 28 32 35 36 33 28 26 24 23 24 24 24 25 26 28 29 30 32 33 33 34 34 34 33 34 35 36 37 39 40 34 29 31 34 36 37 39 41 41 39 39 42 45 47 49 50 52 54 57 52 47 47 47 47 48 48 51 56 59 56 55 56 53 53 53 52 57 58 47 42 43 40 38 33 25
26 26 28 29 28 35 37 25 22 29 33 31 31 40 45 39 34 30 26 23 21 22 26 30 32 34 34 29 25 25 23 22 23 23 24 25 26 27 28 31 32 31 31 31 31 32 34 34 36 37 39 39 34 29 28 30 32 33 34 36 38 37 37 41 43 44 48 51 52 53 57 54 47 47 45 44 46 48 51 55 57 57 53 51 50 51 52 50 53 54 45 41 42 36 34 28 21
29 27 28 31 30 33 38 30 22 28 34 32 32 39 46 43 34 30 28 26 23 23 25 29 30 30 33 30 27 24 21 21 23 22 23 24 25 26 27 29 29 29 29 30 31 32 33 34 36 36 37 39 33 28 27 28 27 28 29 30 33 34 34 39 42 43 46 50 51 50 52 50 44 45 44 42 42 42 45 48 52 55 52 50 50 51 54 52 48 46 42 40 37 32 29 24 21
31 29 28 31 32 30 35 34 26 28 34 34 34 39 45 43 37 34 31 30 29 26 25 28 28 30 35 34 29 26 20 19 22 22 23 23 24 26 26 27 27 27 28 29 31 33 34 34 35 34 33 37 35 30 26 25 27 26 26 28 31 31 32 37 39 42 45 47 47 46 47 44 41 43 43 42 43 41 39 43 49 51 54 55 53 54 55 51 45 43 43 40 33 26 21 21 23
30 30 29 31 33 29 32 36 32 30 34 34 34 37 40 43 45 42 37 35 34 30 28 29 28 28 34 34 31 29 22 18 20 21 22 22 23 25 25 25 26 26 27 29 30 33 34 33 35 33 30 32 36 34 29 26 29 29 26 29 31 29 31 34 35 37 41 42 42 43 41 39 40 42 41 40 41 41 39 39 43 44 51 56 57 60 55 45 44 44 40 31 22 20 20 20 23
30 30 30 30 31 29 30 35 35 31 32 34 34 35 38 40 45 44 38 36 35 33 32 32 29 28 30 30 30 30 24 18 18 19 20 20 22 23 24 24 24 25 27 28 30 32 31 30 32 32 28 28 31 36 34 29 31 32 29 31 32 32 33 33 33 33 37 40 40 41 40 38 39 39 37 36 35 36 35 35 37 37 42 49 55 57 49 41 40 34 25 18 17 22 23 22 23
30 30 30 29 29 28 28 32 36 33 32 36 35 35 37 38 40 38 35 35 35 35 34 33 32 29 29 29 30 30 26 21 18 19 19 19 20 23 24 24 23 24 25 26 29 31 29 27 29 29 26 25 26 30 32 30 31 33 33 34 35 36 37 37 36 37 38 40 41 41 40 37 37 36 33 33 32 32 32 33 34 35 40 46 46 43 37 32 28 20 16 18 21 24 22 23 23
30 31 30 30 28 28 27 29 35 36 34 36 36 35 36 36 37 37 37 37 36 36 35 34 35 33 31 31 30 28 27 24 20 20 21 19 19 21 24 24 23 23 24 26 28 29 27 25 25 26 25 24 23 24 26 31 34 33 34 37 38 38 39 41 42 43 43 43 43 43 42 37 33 31 29 29 32 33 34 37 36 36 39 40 34 30 28 25 21 18 20 22 23 24 22 25 25
29 31 30 31 30 27 28 29 34 37 36 37 37 36 37 38 37 39 40 39 37 37 36 34 36 36 35 33 31 28 26 23 20 21 22 20 19 20 22 24 23 23 24 25 27 28 27 23 22 23 25 24 23 22 23 30 35 33 33 36 39 39 40 42 44 44 43 42 42 42 42 36 29 29 30 32 36 34 32 32 30 30 32 29 24 24 25 24 23 21 24 26 24 23 22 24 25
26 30 30 32 30 26 28 32 35 39 39 39 39 39 39 40 39 38 39 39 38 37 37 36 36 36 37 36 35 34 31 26 20 22 22 19 19 19 20 22 22 22 23 24 25 26 27 24 21 22 23 23 22 22 23 28 32 33 34 34 36 38 37 39 41 41 40 39 39 40 39 34 31 32 31 31 31 27 24 21 21 24 25 23 21 22 24 25 25 25 26 27 26 25 23 23 24
24 28 30 30 30 27 27 32 37 42 42 40 39 41 40 38 39 40 39 38 38 36 36 37 38 37 38 38 36 36 36 31 25 22 21 19 18 18 19 22 22 22 23 24 25 25 26 26 23 21 21 21 21 22 24 27 29 31 33 32 33 34 34 36 37 38 39 38 37 38 38 35 33 31 27 23 22 21 19 17 18 22 24 24 23 23 23 24 25 25 25 25 26 27 24 23 23
24 27 29 30 29 28 29 31 36 42 43 40 39 40 41 40 40 40 39 38 38 38 36 37 40 39 37 38 40 38 34 31 27 24 23 21 20 18 18 20 21 22 22 24 25 25 26 27 26 22 20 19 20 21 23 25 27 30 32 33 34 35 35 37 35 35 38 38 38 37 37 37 30 25 26 23 19 20 18 18 20 24 27 27 26 24 23 24 25 25 26 26 27 26 24 24 24
22 25 28 30 30 29 30 31 35 40 42 41 40 39 42 44 41 38 37 38 38 40 40 38 39 37 33 34 39 40 35 29 26 24 24 25 23 21 19 20 22 22 22 23 24 25 25 26 27 25 21 18 19 21 21 22 24 27 30 34 36 35 36 38 37 36 38 38 38 36 36 38 29 22 27 26 22 22 21 22 23 25 28 29 27 26 25 25 25 26 26 27 27 24 23 25 26
19 25 27 28 29 29 31 32 35 38 41 43 41 38 41 44 42 38 36 37 37 38 40 39 37 36 35 34 37 40 38 32 27 25 25 26 27 25 23 24 26 26 25 25 24 24 25 25 27 27 23 19 19 20 19 20 21 24 28 32 35 35 35 38 38 37 36 33 31 29 29 33 29 24 27 26 25 26 24 24 25 25 29 30 29 28 27 27 27 28 28 28 29 27 26 27 27
16 23 27 27 27 28 30 32 33 37 41 45 43 40 41 42 41 39 37 36 36 36 38 39 38 38 37 38 44 49 43 35 31 29 29 28 28 28 27 26 28 29 28 28 28 25 25 25 26 27 24 19 18 19 18 19 20 22 26 30 33 34 34 36 36 33 30 27 23 24 25 29 29 28 29 27 27 30 29 28 29 29 30 31 31 29 28 28 29 29 29 28 30 30 30 29 28
15 19 26 28 27 27 28 30 32 37 43 44 42 41 42 40 37 36 37 36 37 38 39 39 38 37 35 36 44 50 47 40 36 33 33 32 30 28 28 28 29 30 30 31 31 29 27 27 27 27 23 18 17 18 18 19 21 22 23 26 29 30 29 28 28 28 30 28 25 26 29 29 29 31 33 33 34 35 35 33 34 34 34 34 33 33 32 31 31 31 31 31 31 31 31 31 31
15 18 24 27 26 27 30 31 33 38 41 41 39 39 41 41 36 33 35 35 36 39 40 39 36 35 34 33 34 37 41 43 39 35 35 35 33 30 29 30 30 30 30 31 32 32 30 29 29 29 24 19 18 18 18 20 22 22 23 24 24 24 23 22 24 29 33 33 29 30 33 34 36 38 40 42 43 43 42 41 40 39 40 39 37 38 38 36 34 33 33 34 33 33 32 31 32
15 17 23 27 27 31 36 34 33 35 37 38 38 38 39 39 35 34 35 34 34 37 39 37 35 35 37 36 33 31 37 43 40 36 34 35 35 34 33 33 32 32 31 30 31 32 33 32 32 33 28 22 21 20 20 21 23 24 24 24 23 22 22 23 28 34 38 38 36 36 39 42 44 44 45 47 48 47 46 45 44 43 44 44 43 42 42 42 40 37 36 36 36 34 34 32 31
12 15 22 27 27 33 38 35 34 34 34 35 36 38 38 36 34 35 35 35 35 36 37 36 33 35 38 38 38 37 35 39 40 35 32 34 37 39 39 38 37 35 33 30 29 30 33 34 34 36 32 25 23 23 23 23 24 26 25 25 25 25 25 27 31 37 43 44 43 44 47 49 49 49 50 51 49 48 47 47 47 47 47 47 47 46 45 45 44 42 40 39 38 37 36 35 33
11 12 19 26 26 31 35 33 33 34 33 34 35 38 39 36 35 35 35 34 35 36 36 35 33 35 37 38 42 41 34 36 39 35 32 33 38 40 41 41 40 37 34 31 29 28 30 33 34 36 34 27 25 26 26 26 26 26 26 27 27 28 29 31 32 36 42 44 46 48 50 51 52 53 54 53 51 51 51 50 50 51 50 51 52 52 52 51 49 48 46 44 41 40 41 42 41
13 11 17 24 25 29 32 30 32 34 33 33 34 36 36 35 35 35 35 33 34 35 34 35 34 35 37 36 37 39 33 33 38 36 32 33 37 39 40 40 39 38 36 33 31 29 28 30 32 33 32 28 28 30 30 29 27 27 28 28 29 31 33 35 35 35 39 43 46 48 49 50 52 55 55 53 53 54 55 54 53 53 54 56 58 58 58 59 58 55 51 48 47 45 45 46 46
15 12 14 20 23 26 29 29 30 33 32 32 31 32 33 33 32 33 35 34 33 34 33 34 35 35 36 33 32 35 31 29 34 35 32 34 36 37 38 39 38 38 38 34 33 32 28 28 30 30 29 29 30 32 33 30 28 29 30 29 30 34 35 37 38 37 37 42 46 47 49 49 49 53 55 55 57 59 61 62 62 62 61 60 62 61 57 59 63 62 57 55 54 50 45 45 46
16 15 12 17 23 25 26 29 31 32 33 31 28 28 29 30 29 30 33 32 30 31 32 33 34 33 32 29 29 33 31 30 33 34 33 33 34 35 37 38 38 39 38 34 33 33 29 25 26 27 27 29 32 32 31 29 30 30 30 29 31 34 36 39 41 40 38 41 43 46 49 51 51 54 56 58 59 60 63 65 66 66 65 62 64 66 61 58 62 67 67 65 63 59 52 46 47
12 14 13 16 22 25 27 28 30 31 32 30 28 27 26 27 28 30 32 30 26 27 31 33 33 31 30 30 30 31 33 36 36 33 32 33 33 34 36 37 38 38 37 35 35 35 31 26 24 25 25 27 31 34 32 29 30 31 30 30 32 35 37 39 40 41 43 42 42 45 49 54 59 59 57 57 58 58 61 63 61 60 58 59 63 69 68 62 61 66 72 73 70 67 62 53 49
7 11 16 19 20 23 27 27 27 30 32 31 30 29 27 26 28 30 33 32 27 25 28 31 29 27 28 31 31 28 29 36 36 31 31 32 32 34 36 37 38 37 37 36 35 36 35 30 26 25 26 26 28 33 35 32 30 30 29 30 33 35 37 38 38 42 45 45 45 47 50 56 63 61 57 58 60 62 63 62 60 56 54 57 62 66 67 67 65 65 70 75 73 70 68 62 56
6 6 13 20 20 20 24 24 24 28 31 30 31 31 30 28 27 28 32 34 30 25 26 27 25 24 26 29 30 28 27 30 31 30 31 31 33 34 35 37 37 35 35 34 34 35 35 33 29 26 26 27 27 30 34 34 31 29 28 30 33 34 35 37 38 41 46 48 50 50 50 53 59 59 59 61 62 63 61 57 56 55 53 56 60 62 65 67 66 64 67 74 75 70 68 67 62
8 6 7 15 21 22 23 24 26 27 27 27 30 32 31 28 26 27 30 33 32 28 26 26 26 26 27 28 30 31 30 28 27 29 31 31 32 33 34 36 35 34 34 33 32 33 33 31 31 30 27 27 27 27 29 31 28 27 28 29 31 33 35 37 38 42 46 49 50 49 49 52 57 58 60 62 59 56 54 52 51 52 51 52 55 59 62 62 62 60 62 72 76 71 69 69 66